SBANSBUR

Guest
Details From SBAN - Base Aerea
To SBUR - Uberaba
Flight Number -
Tags Generated
Created
Modified
Stats Distance 220 nm / 408 km
Max Altitude 0 ft / 0 m
Waypoints 3
Social Downloads 0
Likes 0
Share VATSIM

Download

Looking for another format? Having issues loading an existing format? Contact us
Advertisement - Login to hide

Notes

Generated

Route

SBAN URB SBUR

ID Type Via Altitude Latitude Longitude Leg Dist Tot Dist Heading (true) Name
O SBAN APT - 0 ft / 0 m -16.23939˚ -48.97167˚ - 0 nm - -
URB NDB - 0 ft / 0 m -19.76550˚ -47.95917˚ 219 nm 219 nm 165° / 165° UBERABA NDB
O SBUR APT - 0 ft / 0 m -19.75819˚ -47.96911˚ 0 nm 220 nm 308° / 308° -

Altitude Profile

Advertisement - Login to hide

Weather


0- 5 10 15 20 25 30 35+ Temperature / ° C

Clouds and Precipitation
Forecast for 2018-05-24 06:00 UTC. Updated 3 hours ago

Ground ~20,000 ft ~40,000 ft Winds

SBAN

Details ICAO SBAN
Name BASE AEREA
Region Brazil
Timezone America/Sao_Paulo (UTC-3.0)
Stats Elevation 3,728 ft / 1,136 m (AMSL)
Location -16.229153° -48.964267°
Runways 2
Magnetic Variation 21.164° W

METAR

SBAN 240800Z 08006KT CAVOK 18/13 Q1023

Decode

TAF

TAF TAF SBAN 240400Z 2406/2418 10007KT CAVOK TN16/2408Z TX28/2417Z BECMG 2415/2417 12005KT 9999 FEW040 RMK PEJ

Decode

Departure Runways

ID Width Length Bearing (true) Bearing (mag) Surface Threshold Offset Overrun Length
06L 148 ft / 45 m 10,862 ft / 3,311 m 38.85° 60.01° Asphalt 0 ft / 0 m 1,151 ft / 351 m
06R 75 ft / 23 m 7,469 ft / 2,277 m 38.80° 59.96° Asphalt 0 ft / 0 m 0 ft / 0 m
24L 75 ft / 23 m 7,469 ft / 2,277 m 218.79° 239.95° Asphalt 0 ft / 0 m 0 ft / 0 m
24R 148 ft / 45 m 10,862 ft / 3,311 m 218.84° 240.00° Asphalt 0 ft / 0 m 1,142 ft / 348 m

SBUR

Details ICAO SBUR (UBA)
Name Uberaba
Region Brazil
Timezone America/Sao_Paulo (UTC-3.0)
Stats Elevation 2,655 ft / 809 m (AMSL)
Location -19.765000° -47.964777°
Runways 1
Magnetic Variation 21.337° W

METAR

Not found

TAF

TAF SBUR 240213Z 2406/2418 05005KT CAVOK TN14/2409Z TX28/2417Z PROB30 2413/2417 35005KT RMK PGO

Decode

Destination Runways

ID Width Length Bearing (true) Bearing (mag) Surface Threshold Offset Overrun Length
17 148 ft / 45 m 5,791 ft / 1,765 m 149.07° 170.41° Asphalt 0 ft / 0 m 0 ft / 0 m
35 148 ft / 45 m 5,791 ft / 1,765 m 329.07° 350.41° Asphalt 0 ft / 0 m 0 ft / 0 m